User: anonymous   Login
Location: Bittelbronn
(48.4454°N, 8.5870°E)
Time: 13:04:41
(UTC+00:00)
Language:

DMSP 5D-2 F13 DEB - Orbit

View from above orbital plane
View from above orbital plane
View from above satellite
View from above satellite

Ground track
Ground track

The orbit data is extracted from the following two-line orbital elements,

1 42263U 95015GD  24274.09895340  .00005623  00000-0  38809-2 0  9990
2 42263  98.7762 143.6969 0119413 320.3813  38.8669 13.96168986480835
Epoch (UTC): 30 September 2024 02:22:29
Eccentricity: 0.0119413
inclination: 98.7762°
perigee height: 820 km
apogee height: 994 km
right ascension of ascending node: 143.6969°
argument of perigee: 320.3813°
revolutions per day: 13.96168986
mean anomaly at epoch: 38.8669°
orbit number at epoch: 48083

The dashed part of the orbit path shows where the satellite is in the earth's shadow,  

DLR